owner,sensor,date,latitude,longitude,vertical_datum,sea_water_practical_salinity,qcFlag 
DISL,ioos:station:DISL:MHPA:1,2008-05-01T00:00:00Z,30.6671,-87.9365,4.083,0.12,1111122 
DISL,ioos:station:DISL:MHPA:1,2008-05-01T00:30:00Z,30.6671,-87.9365,4.003,0.12,1111122 
DISL,ioos:station:DISL:MHPA:1,2008-05-01T01:00:00Z,30.6671,-87.9365,3.958,0.13,1111122 
DISL,ioos:station:DISL:MHPA:1,2008-05-01T01:30:00Z,30.6671,-87.9365,3.935,0.13,1111122 
DISL,ioos:station:DISL:MHPA:1,2008-05-01T02:00:00Z,30.6671,-87.9365,3.891,0.13,1111122 
DISL,ioos:station:DISL:MHPA:1,2008-05-01T02:30:00Z,30.6671,-87.9365,3.862,0.13,1111122 
DISL,ioos:station:DISL:MHPA:1,2008-05-01T03:00:00Z,30.6671,-87.9365,3.888,0.13,1111122 
DISL,ioos:station:DISL:MHPA:1,2008-05-01T03:30:00Z,30.6671,-87.9365,3.859,0.13,1111122 
DISL,ioos:station:DISL:MHPA:1,2008-05-01T04:00:00Z,30.6671,-87.9365,3.866,0.13,1111122 
DISL,ioos:station:DISL:MHPA:1,2008-05-01T04:30:00Z,30.6671,-87.9365,3.863,0.12,1111122 
DISL,ioos:station:DISL:MHPA:1,2008-05-01T05:00:00Z,30.6671,-87.9365,3.827,0.12,1111122 
DISL,ioos:station:DISL:MHPA:1,2008-05-01T05:30:00Z,30.6671,-87.9365,3.785,0.12,1111122 
DISL,ioos:station:DISL:MHPA:1,2008-05-01T06:00:00Z,30.6671,-87.9365,3.765,0.12,1111122 
DISL,ioos:station:DISL:MHPA:1,2008-05-01T06:30:00Z,30.6671,-87.9365,3.725,0.12,1111122 
DISL,ioos:station:DISL:MHPA:1,2008-05-01T07:00:00Z,30.6671,-87.9365,3.71,0.12,1111122 
DISL,ioos:station:DISL:MHPA:1,2008-05-01T07:30:00Z,30.6671,-87.9365,3.659,0.13,1111122 
DISL,ioos:station:DISL:MHPA:1,2008-05-01T08:00:00Z,30.6671,-87.9365,3.611,0.13,1111122 
DISL,ioos:station:DISL:MHPA:1,2008-05-01T08:30:00Z,30.6671,-87.9365,3.548,0.13,1111122 
DISL,ioos:station:DISL:MHPA:1,2008-05-01T09:00:00Z,30.6671,-87.9365,3.519,0.13,1111122 
DISL,ioos:station:DISL:MHPA:1,2008-05-01T09:30:00Z,30.6671,-87.9365,3.521,0.13,1111122 
DISL,ioos:station:DISL:MHPA:1,2008-05-01T10:00:00Z,30.6671,-87.9365,3.547,0.13,1111122 
DISL,ioos:station:DISL:MHPA:1,2008-05-01T10:30:00Z,30.6671,-87.9365,3.585,0.13,1111122 
DISL,ioos:station:DISL:MHPA:1,2008-05-01T11:00:00Z,30.6671,-87.9365,3.625,0.13,1111122 
DISL,ioos:station:DISL:MHPA:1,2008-05-01T11:30:00Z,30.6671,-87.9365,3.712,0.13,1111122 
DISL,ioos:station:DISL:MHPA:1,2008-05-01T12:00:00Z,30.6671,-87.9365,3.777,0.13,1111122 
DISL,ioos:station:DISL:MHPA:1,2008-05-01T12:30:00Z,30.6671,-87.9365,3.823,0.13,1111122 
DISL,ioos:station:DISL:MHPA:1,2008-05-01T13:00:00Z,30.6671,-87.9365,3.845,0.13,1111122 
DISL,ioos:station:DISL:MHPA:1,2008-05-01T13:30:00Z,30.6671,-87.9365,3.927,0.13,1111122 
DISL,ioos:station:DISL:MHPA:1,2008-05-01T14:00:00Z,30.6671,-87.9365,3.993,0.13,1111122 
DISL,ioos:station:DISL:MHPA:1,2008-05-01T14:30:00Z,30.6671,-87.9365,4.185,0.13,1111122 
DISL,ioos:station:DISL:MHPA:1,2008-05-01T15:00:00Z,30.6671,-87.9365,4.158,0.13,1111122 
DISL,ioos:station:DISL:MHPA:1,2008-05-01T15:30:00Z,30.6671,-87.9365,4.161,0.13,1111122 
DISL,ioos:station:DISL:MHPA:1,2008-05-01T16:00:00Z,30.6671,-87.9365,4.245,0.13,1111122 
DISL,ioos:station:DISL:MHPA:1,2008-05-01T16:30:00Z,30.6671,-87.9365,4.285,0.13,1111122 
DISL,ioos:station:DISL:MHPA:1,2008-05-01T17:00:00Z,30.6671,-87.9365,4.229,0.13,1111122 
DISL,ioos:station:DISL:MHPA:1,2008-05-01T17:30:00Z,30.6671,-87.9365,4.244,0.13,1111122 
DISL,ioos:station:DISL:MHPA:1,2008-05-01T18:00:00Z,30.6671,-87.9365,4.219,0.13,1111122 
DISL,ioos:station:DISL:MHPA:1,2008-05-01T18:30:00Z,30.6671,-87.9365,4.196,0.13,1111122 
DISL,ioos:station:DISL:MHPA:1,2008-05-01T19:00:00Z,30.6671,-87.9365,4.128,0.13,1111122 
DISL,ioos:station:DISL:MHPA:1,2008-05-01T19:30:00Z,30.6671,-87.9365,4.107,0.13,1111122 
DISL,ioos:station:DISL:MHPA:1,2008-05-01T20:00:00Z,30.6671,-87.9365,4.045,0.13,1111122 
DISL,ioos:station:DISL:MHPA:1,2008-05-01T20:30:00Z,30.6671,-87.9365,3.972,0.13,1111122 
DISL,ioos:station:DISL:MHPA:1,2008-05-01T21:00:00Z,30.6671,-87.9365,3.917,0.14,1111122 
DISL,ioos:station:DISL:MHPA:1,2008-05-01T21:30:00Z,30.6671,-87.9365,3.909,0.13,1111122 
DISL,ioos:station:DISL:MHPA:1,2008-05-01T22:00:00Z,30.6671,-87.9365,3.891,0.14,1111122 
DISL,ioos:station:DISL:MHPA:1,2008-05-01T22:30:00Z,30.6671,-87.9365,3.879,0.14,1111122 
DISL,ioos:station:DISL:MHPA:1,2008-05-01T23:00:00Z,30.6671,-87.9365,3.898,0.14,1111122 
DISL,ioos:station:DISL:MHPA:1,2008-05-01T23:30:00Z,30.6671,-87.9365,3.916,0.14,1111122 
DISL,ioos:station:DISL:MHPA:1,2008-05-02T00:00:00Z,30.6671,-87.9365,3.991,0.14,1111122 
DISL,ioos:station:DISL:MHPA:1,2008-05-02T00:30:00Z,30.6671,-87.9365,3.936,0.14,1111122 
DISL,ioos:station:DISL:MHPA:1,2008-05-02T01:00:00Z,30.6671,-87.9365,3.968,0.14,1111122 
DISL,ioos:station:DISL:MHPA:1,2008-05-02T01:30:00Z,30.6671,-87.9365,4.044,0.14,1111122 
DISL,ioos:station:DISL:MHPA:1,2008-05-02T02:00:00Z,30.6671,-87.9365,4.088,0.14,1111122 
DISL,ioos:station:DISL:MHPA:1,2008-05-02T02:30:00Z,30.6671,-87.9365,4.219,0.14,1111122 
DISL,ioos:station:DISL:MHPA:1,2008-05-02T03:00:00Z,30.6671,-87.9365,4.284,0.14,1111122 
DISL,ioos:station:DISL:MHPA:1,2008-05-02T03:30:00Z,30.6671,-87.9365,4.386,0.14,1111122 
DISL,ioos:station:DISL:MHPA:1,2008-05-02T04:00:00Z,30.6671,-87.9365,4.405,0.15,1111122 
DISL,ioos:station:DISL:MHPA:1,2008-05-02T04:30:00Z,30.6671,-87.9365,4.445,0.16,1111122 
DISL,ioos:station:DISL:MHPA:1,2008-05-02T05:00:00Z,30.6671,-87.9365,4.429,0.16,1111122 
DISL,ioos:station:DISL:MHPA:1,2008-05-02T05:30:00Z,30.6671,-87.9365,4.519,0.15,1111122 
DISL,ioos:station:DISL:MHPA:1,2008-05-02T06:00:00Z,30.6671,-87.9365,4.579,0.16,1111122 
DISL,ioos:station:DISL:MHPA:1,2008-05-02T06:30:00Z,30.6671,-87.9365,4.611,0.16,1111122 
DISL,ioos:station:DISL:MHPA:1,2008-05-02T07:00:00Z,30.6671,-87.9365,4.587,0.15,1111122 
DISL,ioos:station:DISL:MHPA:1,2008-05-02T07:30:00Z,30.6671,-87.9365,4.512,0.15,1111122 
DISL,ioos:station:DISL:MHPA:1,2008-05-02T08:00:00Z,30.6671,-87.9365,4.457,0.16,1111122 
DISL,ioos:station:DISL:MHPA:1,2008-05-02T08:30:00Z,30.6671,-87.9365,4.451,0.15,1111122 
DISL,ioos:station:DISL:MHPA:1,2008-05-02T09:00:00Z,30.6671,-87.9365,4.442,0.15,1111122 
DISL,ioos:station:DISL:MHPA:1,2008-05-02T09:30:00Z,30.6671,-87.9365,4.446,0.15,1111122 
DISL,ioos:station:DISL:MHPA:1,2008-05-02T10:00:00Z,30.6671,-87.9365,4.501,0.15,1111122 
DISL,ioos:station:DISL:MHPA:1,2008-05-02T10:30:00Z,30.6671,-87.9365,4.541,0.16,1111122 
DISL,ioos:station:DISL:MHPA:1,2008-05-02T11:00:00Z,30.6671,-87.9365,4.575,0.16,1111122 
DISL,ioos:station:DISL:MHPA:1,2008-05-02T11:30:00Z,30.6671,-87.9365,4.558,0.15,1111122 
DISL,ioos:station:DISL:MHPA:1,2008-05-02T12:00:00Z,30.6671,-87.9365,4.549,0.15,1111122 
DISL,ioos:station:DISL:MHPA:1,2008-05-02T12:30:00Z,30.6671,-87.9365,4.513,0.15,1111122 
DISL,ioos:station:DISL:MHPA:1,2008-05-02T13:00:00Z,30.6671,-87.9365,4.493,0.15,1111122 
DISL,ioos:station:DISL:MHPA:1,2008-05-02T13:30:00Z,30.6671,-87.9365,4.463,0.15,1111122 
DISL,ioos:station:DISL:MHPA:1,2008-05-02T14:00:00Z,30.6671,-87.9365,4.442,0.15,1111122 
DISL,ioos:station:DISL:MHPA:1,2008-05-02T14:30:00Z,30.6671,-87.9365,4.579,0.15,1111122 
DISL,ioos:station:DISL:MHPA:1,2008-05-02T15:00:00Z,30.6671,-87.9365,4.683,0.15,1111122 
DISL,ioos:station:DISL:MHPA:1,2008-05-02T15:30:00Z,30.6671,-87.9365,4.724,0.15,1111122 
DISL,ioos:station:DISL:MHPA:1,2008-05-02T16:00:00Z,30.6671,-87.9365,4.764,0.15,1111122 
DISL,ioos:station:DISL:MHPA:1,2008-05-02T16:30:00Z,30.6671,-87.9365,4.863,0.15,1111122 
DISL,ioos:station:DISL:MHPA:1,2008-05-02T17:00:00Z,30.6671,-87.9365,4.851,0.15,1111122 
DISL,ioos:station:DISL:MHPA:1,2008-05-02T17:30:00Z,30.6671,-87.9365,4.822,0.15,1111122 
DISL,ioos:station:DISL:MHPA:1,2008-05-02T18:00:00Z,30.6671,-87.9365,4.768,0.15,1111122 
DISL,ioos:station:DISL:MHPA:1,2008-05-02T18:30:00Z,30.6671,-87.9365,4.701,0.15,1111122 
DISL,ioos:station:DISL:MHPA:1,2008-05-02T19:00:00Z,30.6671,-87.9365,4.633,0.15,1111122 
DISL,ioos:station:DISL:MHPA:1,2008-05-02T19:30:00Z,30.6671,-87.9365,4.566,0.15,1111122 
DISL,ioos:station:DISL:MHPA:1,2008-05-02T20:00:00Z,30.6671,-87.9365,4.483,0.15,1111122 
DISL,ioos:station:DISL:MHPA:1,2008-05-02T20:30:00Z,30.6671,-87.9365,4.403,0.15,1111122 
DISL,ioos:station:DISL:MHPA:1,2008-05-02T21:00:00Z,30.6671,-87.9365,4.343,0.15,1111122 
DISL,ioos:station:DISL:MHPA:1,2008-05-02T21:30:00Z,30.6671,-87.9365,4.273,0.15,1111122 
DISL,ioos:station:DISL:MHPA:1,2008-05-02T22:00:00Z,30.6671,-87.9365,4.197,0.15,1111122 
DISL,ioos:station:DISL:MHPA:1,2008-05-02T22:30:00Z,30.6671,-87.9365,4.193,0.15,1111122 
DISL,ioos:station:DISL:MHPA:1,2008-05-02T23:00:00Z,30.6671,-87.9365,4.16,0.15,1111122 
DISL,ioos:station:DISL:MHPA:1,2008-05-02T23:30:00Z,30.6671,-87.9365,4.15,0.15,1111122 
DISL,ioos:station:DISL:MHPA:1,2008-05-03T00:00:00Z,30.6671,-87.9365,4.122,0.15,1111122 
DISL,ioos:station:DISL:MHPA:1,2008-05-03T00:30:00Z,30.6671,-87.9365,4.101,0.15,1111122 
DISL,ioos:station:DISL:MHPA:1,2008-05-03T01:00:00Z,30.6671,-87.9365,4.131,0.15,1111122 
DISL,ioos:station:DISL:MHPA:1,2008-05-03T01:30:00Z,30.6671,-87.9365,4.071,0.15,1111122 
DISL,ioos:station:DISL:MHPA:1,2008-05-03T02:00:00Z,30.6671,-87.9365,4.129,0.15,1111122 
DISL,ioos:station:DISL:MHPA:1,2008-05-03T02:30:00Z,30.6671,-87.9365,4.265,0.15,1111122 
DISL,ioos:station:DISL:MHPA:1,2008-05-03T03:00:00Z,30.6671,-87.9365,4.365,0.15,1111122 
DISL,ioos:station:DISL:MHPA:1,2008-05-03T03:30:00Z,30.6671,-87.9365,4.484,0.15,1111122 
DISL,ioos:station:DISL:MHPA:1,2008-05-03T04:00:00Z,30.6671,-87.9365,4.666,0.15,1111122 
DISL,ioos:station:DISL:MHPA:1,2008-05-03T04:30:00Z,30.6671,-87.9365,4.814,0.14,1111122 
DISL,ioos:station:DISL:MHPA:1,2008-05-03T05:00:00Z,30.6671,-87.9365,4.844,0.14,1111122 
DISL,ioos:station:DISL:MHPA:1,2008-05-03T05:30:00Z,30.6671,-87.9365,4.866,0.14,1111122 
DISL,ioos:station:DISL:MHPA:1,2008-05-03T06:00:00Z,30.6671,-87.9365,4.912,0.14,1111122 
DISL,ioos:station:DISL:MHPA:1,2008-05-03T06:30:00Z,30.6671,-87.9365,4.981,0.14,1111122 
DISL,ioos:station:DISL:MHPA:1,2008-05-03T07:00:00Z,30.6671,-87.9365,5.099,0.19,1111122 
DISL,ioos:station:DISL:MHPA:1,2008-05-03T07:30:00Z,30.6671,-87.9365,5.222,0.17,1111122 
DISL,ioos:station:DISL:MHPA:1,2008-05-03T08:00:00Z,30.6671,-87.9365,5.347,0.17,1111122 
DISL,ioos:station:DISL:MHPA:1,2008-05-03T08:30:00Z,30.6671,-87.9365,5.288,0.16,1111122 
DISL,ioos:station:DISL:MHPA:1,2008-05-03T09:00:00Z,30.6671,-87.9365,5.247,0.16,1111122 
DISL,ioos:station:DISL:MHPA:1,2008-05-03T09:30:00Z,30.6671,-87.9365,5.227,0.17,1111122 
DISL,ioos:station:DISL:MHPA:1,2008-05-03T10:00:00Z,30.6671,-87.9365,5.145,0.16,1111122 
DISL,ioos:station:DISL:MHPA:1,2008-05-03T10:30:00Z,30.6671,-87.9365,5.091,0.16,1111122 
DISL,ioos:station:DISL:MHPA:1,2008-05-03T11:00:00Z,30.6671,-87.9365,5.051,0.16,1111122 
DISL,ioos:station:DISL:MHPA:1,2008-05-03T11:30:00Z,30.6671,-87.9365,5.055,0.16,1111122 
DISL,ioos:station:DISL:MHPA:1,2008-05-03T12:00:00Z,30.6671,-87.9365,5.059,0.16,1111122 
DISL,ioos:station:DISL:MHPA:1,2008-05-03T12:30:00Z,30.6671,-87.9365,5.066,0.16,1111122 
DISL,ioos:station:DISL:MHPA:1,2008-05-03T13:00:00Z,30.6671,-87.9365,5.031,0.16,1111122 
DISL,ioos:station:DISL:MHPA:1,2008-05-03T13:30:00Z,30.6671,-87.9365,4.988,0.16,1111122 
DISL,ioos:station:DISL:MHPA:1,2008-05-03T14:00:00Z,30.6671,-87.9365,4.957,0.16,1111122 
DISL,ioos:station:DISL:MHPA:1,2008-05-03T14:30:00Z,30.6671,-87.9365,4.888,0.16,1111122 
DISL,ioos:station:DISL:MHPA:1,2008-05-03T15:00:00Z,30.6671,-87.9365,4.776,0.16,1111122 
DISL,ioos:station:DISL:MHPA:1,2008-05-03T15:30:00Z,30.6671,-87.9365,4.558,0.16,1111122 
DISL,ioos:station:DISL:MHPA:1,2008-05-03T16:00:00Z,30.6671,-87.9365,4.625,0.16,1111122 
DISL,ioos:station:DISL:MHPA:1,2008-05-03T16:30:00Z,30.6671,-87.9365,4.541,0.16,1111122 
DISL,ioos:station:DISL:MHPA:1,2008-05-03T17:00:00Z,30.6671,-87.9365,4.452,0.16,1111122 
DISL,ioos:station:DISL:MHPA:1,2008-05-03T17:30:00Z,30.6671,-87.9365,4.453,0.16,1111122 
DISL,ioos:station:DISL:MHPA:1,2008-05-03T18:00:00Z,30.6671,-87.9365,4.571,0.16,1111122 
DISL,ioos:station:DISL:MHPA:1,2008-05-03T18:30:00Z,30.6671,-87.9365,4.7,0.16,1111122 
DISL,ioos:station:DISL:MHPA:1,2008-05-03T19:00:00Z,30.6671,-87.9365,4.575,0.16,1111122 
DISL,ioos:station:DISL:MHPA:1,2008-05-03T19:30:00Z,30.6671,-87.9365,4.455,0.16,1111122 
DISL,ioos:station:DISL:MHPA:1,2008-05-03T20:00:00Z,30.6671,-87.9365,4.254,0.16,1111122 
DISL,ioos:station:DISL:MHPA:1,2008-05-03T20:30:00Z,30.6671,-87.9365,4.056,0.16,1111122 
DISL,ioos:station:DISL:MHPA:1,2008-05-03T21:00:00Z,30.6671,-87.9365,3.835,0.16,1111122 
DISL,ioos:station:DISL:MHPA:1,2008-05-03T21:30:00Z,30.6671,-87.9365,3.62,0.16,1111122 
DISL,ioos:station:DISL:MHPA:1,2008-05-03T22:00:00Z,30.6671,-87.9365,3.52,0.16,1111122 
DISL,ioos:station:DISL:MHPA:1,2008-05-03T22:30:00Z,30.6671,-87.9365,3.478,0.15,1111122 
DISL,ioos:station:DISL:MHPA:1,2008-05-03T23:00:00Z,30.6671,-87.9365,3.492,0.15,1111122 
DISL,ioos:station:DISL:MHPA:1,2008-05-03T23:30:00Z,30.6671,-87.9365,3.476,0.15,1111122 
DISL,ioos:station:DISL:MHPA:1,2008-05-04T00:00:00Z,30.6671,-87.9365,3.436,0.14,1111122 
DISL,ioos:station:DISL:MHPA:1,2008-05-04T00:30:00Z,30.6671,-87.9365,3.455,0.14,1111122 
DISL,ioos:station:DISL:MHPA:1,2008-05-04T01:00:00Z,30.6671,-87.9365,3.352,0.14,1111122 
DISL,ioos:station:DISL:MHPA:1,2008-05-04T01:30:00Z,30.6671,-87.9365,3.267,0.15,1111122 
DISL,ioos:station:DISL:MHPA:1,2008-05-04T02:00:00Z,30.6671,-87.9365,3.299,0.15,1111122 
DISL,ioos:station:DISL:MHPA:1,2008-05-04T02:30:00Z,30.6671,-87.9365,3.229,0.15,1111122 
DISL,ioos:station:DISL:MHPA:1,2008-05-04T03:00:00Z,30.6671,-87.9365,3.258,0.15,1111122 
DISL,ioos:station:DISL:MHPA:1,2008-05-04T03:30:00Z,30.6671,-87.9365,3.416,0.15,1111122 
DISL,ioos:station:DISL:MHPA:1,2008-05-04T04:00:00Z,30.6671,-87.9365,3.467,0.15,1111122 
DISL,ioos:station:DISL:MHPA:1,2008-05-04T04:30:00Z,30.6671,-87.9365,3.596,0.15,1111122 
DISL,ioos:station:DISL:MHPA:1,2008-05-04T05:00:00Z,30.6671,-87.9365,3.734,0.15,1111122 
DISL,ioos:station:DISL:MHPA:1,2008-05-04T05:30:00Z,30.6671,-87.9365,3.779,0.15,1111122 
DISL,ioos:station:DISL:MHPA:1,2008-05-04T06:00:00Z,30.6671,-87.9365,3.917,0.15,1111122 
DISL,ioos:station:DISL:MHPA:1,2008-05-04T06:30:00Z,30.6671,-87.9365,4.08,0.15,1111122 
DISL,ioos:station:DISL:MHPA:1,2008-05-04T07:00:00Z,30.6671,-87.9365,4.138,0.15,1111122 
DISL,ioos:station:DISL:MHPA:1,2008-05-04T07:30:00Z,30.6671,-87.9365,4.13,0.15,1111122 
DISL,ioos:station:DISL:MHPA:1,2008-05-04T08:00:00Z,30.6671,-87.9365,4.273,0.15,1111122 
DISL,ioos:station:DISL:MHPA:1,2008-05-04T08:30:00Z,30.6671,-87.9365,4.296,0.15,1111122 
DISL,ioos:station:DISL:MHPA:1,2008-05-04T09:00:00Z,30.6671,-87.9365,4.296,0.15,1111122 
DISL,ioos:station:DISL:MHPA:1,2008-05-04T09:30:00Z,30.6671,-87.9365,4.215,0.15,1111122 
DISL,ioos:station:DISL:MHPA:1,2008-05-04T10:00:00Z,30.6671,-87.9365,4.211,0.15,1111122 
DISL,ioos:station:DISL:MHPA:1,2008-05-04T10:30:00Z,30.6671,-87.9365,4.195,0.15,1111122 
DISL,ioos:station:DISL:MHPA:1,2008-05-04T11:00:00Z,30.6671,-87.9365,4.184,0.15,1111122 
DISL,ioos:station:DISL:MHPA:1,2008-05-04T11:30:00Z,30.6671,-87.9365,4.15,0.15,1111122 
DISL,ioos:station:DISL:MHPA:1,2008-05-04T12:00:00Z,30.6671,-87.9365,4.154,0.15,1111122 
DISL,ioos:station:DISL:MHPA:1,2008-05-04T12:30:00Z,30.6671,-87.9365,4.155,0.15,1111122 
DISL,ioos:station:DISL:MHPA:1,2008-05-04T13:00:00Z,30.6671,-87.9365,4.16,0.15,1111122 
DISL,ioos:station:DISL:MHPA:1,2008-05-04T13:30:00Z,30.6671,-87.9365,4.18,0.15,1111122 
DISL,ioos:station:DISL:MHPA:1,2008-05-04T14:00:00Z,30.6671,-87.9365,4.23,0.15,1111122 
DISL,ioos:station:DISL:MHPA:1,2008-05-04T14:30:00Z,30.6671,-87.9365,4.246,0.15,1111122 
DISL,ioos:station:DISL:MHPA:1,2008-05-04T15:00:00Z,30.6671,-87.9365,4.28,0.14,1111122 
DISL,ioos:station:DISL:MHPA:1,2008-05-04T15:30:00Z,30.6671,-87.9365,4.315,0.14,1111122 
DISL,ioos:station:DISL:MHPA:1,2008-05-04T16:00:00Z,30.6671,-87.9365,4.308,0.13,1111122 
DISL,ioos:station:DISL:MHPA:1,2008-05-04T16:30:00Z,30.6671,-87.9365,4.369,0.13,1111122 
DISL,ioos:station:DISL:MHPA:1,2008-05-04T17:00:00Z,30.6671,-87.9365,4.369,0.15,1111122 
DISL,ioos:station:DISL:MHPA:1,2008-05-04T17:30:00Z,30.6671,-87.9365,4.405,0.14,1111122 
DISL,ioos:station:DISL:MHPA:1,2008-05-04T18:00:00Z,30.6671,-87.9365,4.354,0.15,1111122 
DISL,ioos:station:DISL:MHPA:1,2008-05-04T18:30:00Z,30.6671,-87.9365,4.309,0.15,1111122 
DISL,ioos:station:DISL:MHPA:1,2008-05-04T19:00:00Z,30.6671,-87.9365,4.287,0.14,1111122 
DISL,ioos:station:DISL:MHPA:1,2008-05-04T19:30:00Z,30.6671,-87.9365,4.161,0.14,1111122 
DISL,ioos:station:DISL:MHPA:1,2008-05-04T20:00:00Z,30.6671,-87.9365,4.09,0.15,1111122 
DISL,ioos:station:DISL:MHPA:1,2008-05-04T20:30:00Z,30.6671,-87.9365,3.994,0.15,1111122 
DISL,ioos:station:DISL:MHPA:1,2008-05-04T21:00:00Z,30.6671,-87.9365,3.926,0.14,1111122 
DISL,ioos:station:DISL:MHPA:1,2008-05-04T21:30:00Z,30.6671,-87.9365,3.79,0.14,1111122 
DISL,ioos:station:DISL:MHPA:1,2008-05-04T22:00:00Z,30.6671,-87.9365,3.719,0.13,1111122 
DISL,ioos:station:DISL:MHPA:1,2008-05-04T22:30:00Z,30.6671,-87.9365,3.576,0.13,1111122 
DISL,ioos:station:DISL:MHPA:1,2008-05-04T23:00:00Z,30.6671,-87.9365,3.439,0.12,1111122 
DISL,ioos:station:DISL:MHPA:1,2008-05-04T23:30:00Z,30.6671,-87.9365,3.373,0.12,1111122 
DISL,ioos:station:DISL:MHPA:1,2008-05-05T00:00:00Z,30.6671,-87.9365,3.321,0.12,1111122 
DISL,ioos:station:DISL:MHPA:1,2008-05-05T00:30:00Z,30.6671,-87.9365,3.213,0.11,1111122 
DISL,ioos:station:DISL:MHPA:1,2008-05-05T01:00:00Z,30.6671,-87.9365,3.097,0.12,1111122 
DISL,ioos:station:DISL:MHPA:1,2008-05-05T01:30:00Z,30.6671,-87.9365,2.959,0.12,1111122 
DISL,ioos:station:DISL:MHPA:1,2008-05-05T02:00:00Z,30.6671,-87.9365,2.873,0.12,1111122 
DISL,ioos:station:DISL:MHPA:1,2008-05-05T02:30:00Z,30.6671,-87.9365,2.793,0.11,1111122 
DISL,ioos:station:DISL:MHPA:1,2008-05-05T03:00:00Z,30.6671,-87.9365,2.711,0.12,1111122 
DISL,ioos:station:DISL:MHPA:1,2008-05-05T03:30:00Z,30.6671,-87.9365,2.638,0.12,1111122 
DISL,ioos:station:DISL:MHPA:1,2008-05-05T04:00:00Z,30.6671,-87.9365,2.582,0.12,1111122 
DISL,ioos:station:DISL:MHPA:1,2008-05-05T04:30:00Z,30.6671,-87.9365,2.568,0.12,1111122 
DISL,ioos:station:DISL:MHPA:1,2008-05-05T05:00:00Z,30.6671,-87.9365,2.558,0.12,1111122 
DISL,ioos:station:DISL:MHPA:1,2008-05-05T05:30:00Z,30.6671,-87.9365,2.559,0.12,1111122 
DISL,ioos:station:DISL:MHPA:1,2008-05-05T06:00:00Z,30.6671,-87.9365,2.647,0.12,1111122 
DISL,ioos:station:DISL:MHPA:1,2008-05-05T06:30:00Z,30.6671,-87.9365,2.748,0.12,1111122 
DISL,ioos:station:DISL:MHPA:1,2008-05-05T07:00:00Z,30.6671,-87.9365,2.813,0.12,1111122 
DISL,ioos:station:DISL:MHPA:1,2008-05-05T07:30:00Z,30.6671,-87.9365,2.913,0.12,1111122 
DISL,ioos:station:DISL:MHPA:1,2008-05-05T08:00:00Z,30.6671,-87.9365,2.984,0.12,1111122 
DISL,ioos:station:DISL:MHPA:1,2008-05-05T08:30:00Z,30.6671,-87.9365,3.063,0.12,1111122 
DISL,ioos:station:DISL:MHPA:1,2008-05-05T09:00:00Z,30.6671,-87.9365,3.185,0.12,1111122 
DISL,ioos:station:DISL:MHPA:1,2008-05-05T09:30:00Z,30.6671,-87.9365,3.28,0.12,1111122 
DISL,ioos:station:DISL:MHPA:1,2008-05-05T10:00:00Z,30.6671,-87.9365,3.339,0.12,1111122 
DISL,ioos:station:DISL:MHPA:1,2008-05-05T10:30:00Z,30.6671,-87.9365,3.258,0.12,1111122 
DISL,ioos:station:DISL:MHPA:1,2008-05-05T11:00:00Z,30.6671,-87.9365,3.347,0.12,1111122 
DISL,ioos:station:DISL:MHPA:1,2008-05-05T11:30:00Z,30.6671,-87.9365,3.394,0.12,1111122 
DISL,ioos:station:DISL:MHPA:1,2008-05-05T12:00:00Z,30.6671,-87.9365,3.469,0.12,1111122 
DISL,ioos:station:DISL:MHPA:1,2008-05-05T12:30:00Z,30.6671,-87.9365,3.571,0.13,1111122 
DISL,ioos:station:DISL:MHPA:1,2008-05-05T13:00:00Z,30.6671,-87.9365,3.698,0.13,1111122 
DISL,ioos:station:DISL:MHPA:1,2008-05-05T13:30:00Z,30.6671,-87.9365,3.754,0.13,1111122 
DISL,ioos:station:DISL:MHPA:1,2008-05-05T14:00:00Z,30.6671,-87.9365,3.862,0.13,1111122 
DISL,ioos:station:DISL:MHPA:1,2008-05-05T14:30:00Z,30.6671,-87.9365,4.03,0.12,1111122 
DISL,ioos:station:DISL:MHPA:1,2008-05-05T15:00:00Z,30.6671,-87.9365,4.109,0.12,1111122 
DISL,ioos:station:DISL:MHPA:1,2008-05-05T15:30:00Z,30.6671,-87.9365,4.219,0.13,1111122 
DISL,ioos:station:DISL:MHPA:1,2008-05-05T16:00:00Z,30.6671,-87.9365,4.294,0.13,1111122 
DISL,ioos:station:DISL:MHPA:1,2008-05-05T16:30:00Z,30.6671,-87.9365,4.339,0.13,1111122 
DISL,ioos:station:DISL:MHPA:1,2008-05-05T17:00:00Z,30.6671,-87.9365,4.358,0.13,1111122 
DISL,ioos:station:DISL:MHPA:1,2008-05-05T17:30:00Z,30.6671,-87.9365,4.392,0.13,1111122 
DISL,ioos:station:DISL:MHPA:1,2008-05-05T18:00:00Z,30.6671,-87.9365,4.363,0.13,1111122 
DISL,ioos:station:DISL:MHPA:1,2008-05-05T18:30:00Z,30.6671,-87.9365,4.274,0.13,1111122 
DISL,ioos:station:DISL:MHPA:1,2008-05-05T19:00:00Z,30.6671,-87.9365,4.206,0.13,1111122 
DISL,ioos:station:DISL:MHPA:1,2008-05-05T19:30:00Z,30.6671,-87.9365,4.108,0.13,1111122 
DISL,ioos:station:DISL:MHPA:1,2008-05-05T20:00:00Z,30.6671,-87.9365,3.992,0.12,1111122 
DISL,ioos:station:DISL:MHPA:1,2008-05-05T20:30:00Z,30.6671,-87.9365,3.828,0.12,1111122 
DISL,ioos:station:DISL:MHPA:1,2008-05-05T21:00:00Z,30.6671,-87.9365,3.689,0.12,1111122 
DISL,ioos:station:DISL:MHPA:1,2008-05-05T21:30:00Z,30.6671,-87.9365,3.548,0.12,1111122 
DISL,ioos:station:DISL:MHPA:1,2008-05-05T22:00:00Z,30.6671,-87.9365,3.386,0.12,1111122 
DISL,ioos:station:DISL:MHPA:1,2008-05-05T22:30:00Z,30.6671,-87.9365,3.219,0.12,1111122 
DISL,ioos:station:DISL:MHPA:1,2008-05-05T23:00:00Z,30.6671,-87.9365,3.086,0.12,1111122 
DISL,ioos:station:DISL:MHPA:1,2008-05-05T23:30:00Z,30.6671,-87.9365,2.94,0.12,1111122 
DISL,ioos:station:DISL:MHPA:1,2008-05-06T00:00:00Z,30.6671,-87.9365,2.804,0.12,1111122 
DISL,ioos:station:DISL:MHPA:1,2008-05-06T00:30:00Z,30.6671,-87.9365,2.719,0.12,1111122 
DISL,ioos:station:DISL:MHPA:1,2008-05-06T01:00:00Z,30.6671,-87.9365,2.624,0.12,1111122 
DISL,ioos:station:DISL:MHPA:1,2008-05-06T01:30:00Z,30.6671,-87.9365,2.539,0.12,1111122 
DISL,ioos:station:DISL:MHPA:1,2008-05-06T02:00:00Z,30.6671,-87.9365,2.451,0.12,1111122 
DISL,ioos:station:DISL:MHPA:1,2008-05-06T02:30:00Z,30.6671,-87.9365,2.348,0.12,1111122 
DISL,ioos:station:DISL:MHPA:1,2008-05-06T03:00:00Z,30.6671,-87.9365,2.246,0.13,1111122 
DISL,ioos:station:DISL:MHPA:1,2008-05-06T03:30:00Z,30.6671,-87.9365,2.155,0.13,1111122 
DISL,ioos:station:DISL:MHPA:1,2008-05-06T04:00:00Z,30.6671,-87.9365,2.081,0.13,1111122 
DISL,ioos:station:DISL:MHPA:1,2008-05-06T04:30:00Z,30.6671,-87.9365,2.006,0.12,1111122 
DISL,ioos:station:DISL:MHPA:1,2008-05-06T05:00:00Z,30.6671,-87.9365,1.956,0.12,1111122 
DISL,ioos:station:DISL:MHPA:1,2008-05-06T05:30:00Z,30.6671,-87.9365,1.939,0.12,1111122 
DISL,ioos:station:DISL:MHPA:1,2008-05-06T06:00:00Z,30.6671,-87.9365,1.991,0.12,1111122 
DISL,ioos:station:DISL:MHPA:1,2008-05-06T06:30:00Z,30.6671,-87.9365,2.102,0.12,1111122 
DISL,ioos:station:DISL:MHPA:1,2008-05-06T07:00:00Z,30.6671,-87.9365,2.203,0.12,1111122 
DISL,ioos:station:DISL:MHPA:1,2008-05-06T07:30:00Z,30.6671,-87.9365,2.344,0.12,1111122 
DISL,ioos:station:DISL:MHPA:1,2008-05-06T08:00:00Z,30.6671,-87.9365,2.513,0.12,1111122 
DISL,ioos:station:DISL:MHPA:1,2008-05-06T08:30:00Z,30.6671,-87.9365,2.657,0.12,1111122 
DISL,ioos:station:DISL:MHPA:1,2008-05-06T09:00:00Z,30.6671,-87.9365,2.825,0.13,1111122 
DISL,ioos:station:DISL:MHPA:1,2008-05-06T09:30:00Z,30.6671,-87.9365,2.962,0.13,1111122 
DISL,ioos:station:DISL:MHPA:1,2008-05-06T10:00:00Z,30.6671,-87.9365,3.109,0.13,1111122 
DISL,ioos:station:DISL:MHPA:1,2008-05-06T10:30:00Z,30.6671,-87.9365,3.27,0.13,1111122 
DISL,ioos:station:DISL:MHPA:1,2008-05-06T11:00:00Z,30.6671,-87.9365,3.335,0.13,1111122 
DISL,ioos:station:DISL:MHPA:1,2008-05-06T11:30:00Z,30.6671,-87.9365,3.402,0.13,1111122 
DISL,ioos:station:DISL:MHPA:1,2008-05-06T12:00:00Z,30.6671,-87.9365,3.433,0.13,1111122 
DISL,ioos:station:DISL:MHPA:1,2008-05-06T12:30:00Z,30.6671,-87.9365,3.604,0.13,1111122 
DISL,ioos:station:DISL:MHPA:1,2008-05-06T13:00:00Z,30.6671,-87.9365,3.757,0.13,1111122 
DISL,ioos:station:DISL:MHPA:1,2008-05-06T13:30:00Z,30.6671,-87.9365,3.857,0.13,1111122 
DISL,ioos:station:DISL:MHPA:1,2008-05-06T14:00:00Z,30.6671,-87.9365,3.96,0.13,1111122 
DISL,ioos:station:DISL:MHPA:1,2008-05-06T14:30:00Z,30.6671,-87.9365,4.129,0.13,1111122 
DISL,ioos:station:DISL:MHPA:1,2008-05-06T15:00:00Z,30.6671,-87.9365,4.3,0.13,1111122 